York, NE

1:54 PM CDT on April 25, 2017 (GMT -0500)
York Municipal

Weather History for KJYR - November, 2013

Change the Weather History Date:

Sunday, November 24, 2013

  Actual Average Record
Temperature  
Mean Temperature 24 °F -  
Max Temperature 35 °F 45 °F 69 °F (2011)
Min Temperature 12 °F 23 °F 5 °F (1975)
Degree Days  
Heating Degree Days 42    
Moisture  
Dew Point 10 °F    
Average Humidity 60    
Maximum Humidity 79    
Minimum Humidity 35    
Precipitation  
Precipitation 0.00 in - - ()
Sea Level Pressure  
Sea Level Pressure 30.41 in    
Wind  
Wind Speed 12 mph (South)    
Max Wind Speed 21 mph    
Max Gust Speed 26 mph    
Visibility 10 miles    
Events      
Averages and records for this station are not official NWS values.
T = Trace of Precipitation, MM = Missing Value Source: NWS Daily Summary

Daily Weather History Graph

Daily Weather History Graph

Search for Another Location

Airport or City:

Trip Planner

Search our weather history database for the weather conditions in past years. The results will help you decide how hot, cold, wet, or windy it might be!

Date:

Astronomy

Nov. 24, 2013 Rise Set
Actual Time 7:28 AM CST 5:05 PM CST
Civil Twilight 6:58 AM CST 5:35 PM CST
Nautical Twilight 6:24 AM CST 6:09 PM CST
Astronomical Twilight 5:51 AM CST 6:42 PM CST
Moon 11:34 PM CST (11/24) 12:15 PM CST (11/24)
Length of Visible Light 10h 37m
Length of Day
9h 37m
Waning Gibbous, 60% of the Moon is Illuminated
Nov 24
Waning Gibbous
Nov 25
Last Quarter
Dec 2
New
Dec 9
First Quarter
Dec 17
Full

Hourly Weather History & Observations

Time (CST) Temp. Windchill Dew Point Humidity Pressure Visibility Wind Dir Wind Speed Gust Speed Precip Events Conditions
12:15 AM 14.0 °F 3.9 °F 5.0 °F 67% 30.67 in 10.0 mi South 6.9 mph - N/A   Clear
12:35 AM 14.0 °F 3.9 °F 5.0 °F 67% 30.67 in 10.0 mi South 6.9 mph - N/A   Clear
12:55 AM 14.0 °F 2.9 °F 5.0 °F 67% 30.67 in 10.0 mi South 8.1 mph - N/A   Clear
1:15 AM 14.0 °F 5.1 °F 5.0 °F 67% 30.66 in 10.0 mi South 5.8 mph - N/A   Clear
1:35 AM 14.0 °F 3.9 °F 5.0 °F 67% 30.65 in 10.0 mi South 6.9 mph - N/A   Clear
1:55 AM 12.2 °F 1.7 °F 5.0 °F 73% 30.64 in 10.0 mi South 6.9 mph - N/A   Clear
2:15 AM 12.2 °F 1.7 °F 5.0 °F 73% 30.64 in 10.0 mi South 6.9 mph - N/A   Clear
2:35 AM 12.2 °F 1.7 °F 5.0 °F 73% 30.64 in 10.0 mi South 6.9 mph - N/A   Clear
2:55 AM 12.2 °F 0.7 °F 5.0 °F 73% 30.64 in 10.0 mi South 8.1 mph - N/A   Clear
3:15 AM 12.2 °F 0.7 °F 5.0 °F 73% 30.63 in 10.0 mi South 8.1 mph - N/A   Clear
3:35 AM 12.2 °F 0.7 °F 6.8 °F 79% 30.62 in 10.0 mi South 8.1 mph - N/A   Clear
3:55 AM 12.2 °F 0.7 °F 6.8 °F 79% 30.61 in 10.0 mi South 8.1 mph - N/A   Clear
4:15 AM 12.2 °F -1.0 °F 6.8 °F 79% 30.60 in 10.0 mi South 10.4 mph - N/A   Clear
4:35 AM 14.0 °F 1.2 °F 6.8 °F 73% 30.60 in 10.0 mi SSW 10.4 mph - N/A   Scattered Clouds
4:55 AM 14.0 °F 2.0 °F 6.8 °F 73% 30.60 in 10.0 mi SSW 9.2 mph - N/A   Overcast
5:15 AM 14.0 °F 2.0 °F 6.8 °F 73% 30.59 in 10.0 mi South 9.2 mph - N/A   Scattered Clouds
5:35 AM 14.0 °F 0.5 °F 6.8 °F 73% 30.58 in 10.0 mi South 11.5 mph - N/A   Clear
5:55 AM 14.0 °F 0.5 °F 6.8 °F 73% 30.57 in 10.0 mi SSW 11.5 mph - N/A   Clear
6:15 AM 14.0 °F 0.5 °F 6.8 °F 73% 30.56 in 10.0 mi SSW 11.5 mph - N/A   Clear
6:35 AM 14.0 °F 1.2 °F 6.8 °F 73% 30.56 in 10.0 mi South 10.4 mph - N/A   Clear
6:55 AM 14.0 °F -0.2 °F 6.8 °F 73% 30.56 in 10.0 mi SSW 12.7 mph - N/A   Clear
7:15 AM 14.0 °F -0.8 °F 8.6 °F 79% 30.54 in 10.0 mi SSW 13.8 mph - N/A   Clear
7:35 AM 14.0 °F 0.5 °F 8.6 °F 79% 30.54 in 10.0 mi South 11.5 mph - N/A   Clear
7:55 AM 14.0 °F 0.5 °F 8.6 °F 79% 30.54 in 10.0 mi South 11.5 mph - N/A   Clear
8:15 AM 14.0 °F -0.8 °F 8.6 °F 79% 30.54 in 10.0 mi South 13.8 mph - N/A   Clear
8:35 AM 15.8 °F 2.1 °F 10.4 °F 79% 30.53 in 10.0 mi South 12.7 mph - N/A   Clear
8:55 AM 17.6 °F 2.7 °F 10.4 °F 73% 30.53 in 10.0 mi South 16.1 mph - N/A   Clear
9:15 AM 19.4 °F 3.6 °F 8.6 °F 63% 30.52 in 10.0 mi South 19.6 mph - N/A   Clear
9:35 AM 21.2 °F 7.8 °F 8.6 °F 58% 30.51 in 10.0 mi South 15.0 mph - N/A   Clear
9:55 AM 23.0 °F 8.7 °F 10.4 °F 59% 30.51 in 10.0 mi SSW 18.4 mph 23.0 mph N/A   Clear
10:15 AM 23.0 °F 9.2 °F 10.4 °F 59% 30.49 in 10.0 mi South 17.3 mph - N/A   Clear
10:35 AM 26.6 °F 13.8 °F 12.2 °F 55% 30.48 in 10.0 mi SSW 17.3 mph - N/A   Clear
10:55 AM 26.6 °F 14.3 °F 12.2 °F 55% 30.48 in 10.0 mi South 16.1 mph - N/A   Clear
11:15 AM 28.4 °F 17.0 °F 14.0 °F 55% 30.46 in 10.0 mi SSW 15.0 mph 21.9 mph N/A   Clear
11:35 AM 30.2 °F 18.5 °F 14.0 °F 51% 30.44 in 10.0 mi SSW 17.3 mph 23.0 mph N/A   Clear
11:55 AM 32.0 °F 21.2 °F 12.2 °F 44% 30.43 in 10.0 mi SSW 16.1 mph 23.0 mph N/A   Clear
12:15 PM 32.0 °F 20.8 °F 14.0 °F 48% 30.41 in 10.0 mi SSW 17.3 mph - N/A   Clear
12:35 PM 32.0 °F 20.1 °F 12.2 °F 44% 30.40 in 10.0 mi SSW 19.6 mph 26.5 mph N/A   Clear
12:55 PM 33.8 °F 22.8 °F 14.0 °F 44% 30.38 in 10.0 mi SSW 18.4 mph 24.2 mph N/A   Clear
1:15 PM 33.8 °F 22.5 °F 12.2 °F 41% 30.37 in 10.0 mi SSW 19.6 mph 25.3 mph N/A   Clear
1:35 PM 35.6 °F 24.5 °F 10.4 °F 35% 30.35 in 10.0 mi SSW 20.7 mph 26.5 mph N/A   Clear
1:55 PM 33.8 °F 22.8 °F 10.4 °F 38% 30.34 in 10.0 mi SSW 18.4 mph 25.3 mph N/A   Clear
2:15 PM 32.0 °F 20.1 °F 10.4 °F 41% 30.33 in 10.0 mi South 19.6 mph 24.2 mph N/A   Partly Cloudy
2:35 PM 32.0 °F 20.1 °F 10.4 °F 41% 30.32 in 10.0 mi South 19.6 mph - N/A   Clear
2:55 PM 32.0 °F 20.8 °F 10.4 °F 41% 30.30 in 10.0 mi South 17.3 mph - N/A   Clear
3:15 PM 33.8 °F 23.9 °F 10.4 °F 38% 30.29 in 10.0 mi South 15.0 mph 21.9 mph N/A   Clear
3:35 PM 32.0 °F 19.8 °F 10.4 °F 41% 30.28 in 10.0 mi South 20.7 mph 25.3 mph N/A   Clear
3:55 PM 32.0 °F 20.5 °F 10.4 °F 41% 30.28 in 10.0 mi South 18.4 mph - N/A   Scattered Clouds
4:15 PM 32.0 °F 21.2 °F 12.2 °F 44% 30.26 in 10.0 mi South 16.1 mph 24.2 mph N/A   Mostly Cloudy
4:35 PM 32.0 °F 20.1 °F 14.0 °F 48% 30.25 in 10.0 mi South 19.6 mph 24.2 mph N/A   Overcast
4:55 PM 32.0 °F 20.5 °F 14.0 °F 48% 30.24 in 10.0 mi South 18.4 mph - N/A   Overcast
5:15 PM 32.0 °F 21.2 °F 14.0 °F 48% 30.23 in 10.0 mi South 16.1 mph - N/A   Mostly Cloudy
5:35 PM 30.2 °F 19.3 °F 14.0 °F 51% 30.22 in 10.0 mi South 15.0 mph - N/A   Clear
5:55 PM 30.2 °F 18.1 °F 14.0 °F 51% 30.23 in 10.0 mi South 18.4 mph 24.2 mph N/A   Mostly Cloudy
6:15 PM 28.4 °F 16.2 °F 14.0 °F 55% 30.23 in 10.0 mi South 17.3 mph 23.0 mph N/A   Partly Cloudy
6:35 PM 28.4 °F 15.4 °F 12.2 °F 51% 30.22 in 10.0 mi South 19.6 mph 26.5 mph N/A   Scattered Clouds
6:55 PM 26.6 °F 14.7 °F 14.0 °F 59% 30.20 in 10.0 mi South 15.0 mph 23.0 mph N/A   Mostly Cloudy
7:15 PM 26.6 °F 15.2 °F 14.0 °F 59% 30.20 in 10.0 mi South 13.8 mph - N/A   Partly Cloudy
7:35 PM 26.6 °F 13.8 °F 15.8 °F 64% 30.20 in 10.0 mi South 17.3 mph - N/A   Clear
7:55 PM 24.8 °F 11.5 °F 17.6 °F 74% 30.20 in 10.0 mi SSW 17.3 mph 24.2 mph N/A   Scattered Clouds
8:15 PM 24.8 °F 11.9 °F 15.8 °F 69% 30.20 in 10.0 mi South 16.1 mph 20.7 mph N/A   Mostly Cloudy
8:35 PM 24.8 °F 11.5 °F 14.0 °F 64% 30.20 in 10.0 mi South 17.3 mph 21.9 mph N/A   Mostly Cloudy
8:55 PM 24.8 °F 11.9 °F 12.2 °F 59% 30.20 in 10.0 mi SSW 16.1 mph 20.7 mph N/A   Overcast
9:15 PM 24.8 °F 13.4 °F 12.2 °F 59% 30.20 in 10.0 mi SSW 12.7 mph - N/A   Overcast
9:35 PM 24.8 °F 12.9 °F 10.4 °F 54% 30.19 in 10.0 mi South 13.8 mph - N/A   Mostly Cloudy
9:55 PM 24.8 °F 14.0 °F 10.4 °F 54% 30.19 in 10.0 mi South 11.5 mph - N/A   Scattered Clouds
10:15 PM 24.8 °F 14.0 °F 10.4 °F 54% 30.18 in 10.0 mi SSW 11.5 mph - N/A   Mostly Cloudy
10:35 PM 24.8 °F 13.4 °F 10.4 °F 54% 30.18 in 10.0 mi SSW 12.7 mph - N/A   Scattered Clouds
10:55 PM 24.8 °F 12.4 °F 10.4 °F 54% 30.17 in 10.0 mi South 15.0 mph - N/A   Clear
11:15 PM 23.0 °F 11.7 °F 10.4 °F 59% 30.17 in 10.0 mi SSW 11.5 mph - N/A   Clear
11:35 PM 23.0 °F 11.7 °F 10.4 °F 59% 30.17 in 10.0 mi SSW 11.5 mph - N/A   Clear
11:55 PM 23.0 °F 10.6 °F 10.4 °F 59% 30.16 in 10.0 mi South 13.8 mph - N/A   Mostly Cloudy